weather.gov     
National Weather Service

Regional Weather Roundup
NWS Homepage
This page is being discontinued on March 12, 2014.
The same data is available at this site. Please update your bookmarks.
Thank you, and we apologize for the inconvenience.
Please send an email to SR-SRH.Webmaster@noaa.gov with any concerns.


Current Version
Previous Version:    01  02  03  04  05  06  07  08  09  10  11  12  13  14  15  16  17  18  19  20  21  22  23  24  25  26  27  28  29  30  
   31  32  33  34  35  36  37  38  39  40  41  42  43  44  45  46  47  48  49  50  51  52  53  54  
[Printable]
816
ASUS41 KGYX 010405
RWRGYX
WEATHER ROUNDUP FOR MAINE AND NEW HAMPSHIRE
NATIONAL WEATHER SERVICE GRAY ME
1200 AM EDT FRI AUG 01 2014

MEZ002-005-006-010-012-015-018-020-021-024-026-027-029-010500-
MAINE

CITY           SKY/WX    TMP DP  RH WIND       PRES   REMARKS
PORTLAND       CLOUDY    66  61  84 W6        30.15R
SANFORD        MOCLDY    64  61  88 CALM      30.16S
BAR HARBOR     CLOUDY    64  64 100 S5        30.17R
WISCASSET      CLEAR     62  60  93 CALM      30.16R
ROCKLAND       MOCLDY    64  63  94 S3        30.14S
FRYEBURG       CLEAR     57  56  96 CALM      30.16R
LEWISTONAUBURN CLEAR     59  55  88 CALM      30.15R
AUGUSTA        CLEAR     61  60  97 S3        30.15R
WATERVILLE     CLEAR     61  59  94 S3        30.11R
BANGOR         PTCLDY    64  61  90 S6        30.15R
GREENVILLE       N/A     57  56  96 CALM      30.14R
MILLINOCKET    PTCLDY    60  58  92 CALM      30.15R
HOULTON        CLEAR     62  57  83 S6        30.13R
PRESQUE ISLE   CLEAR     57  54  88 SE5       30.12R
FRENCHVILLE    PTCLDY    57  56  96 S5        30.10R
CARIBOU        CLEAR     60  58  92 SW5       30.11R
$$

NHZ002-005-008-009-011-012-014-010500-
NEW HAMPSHIRE

CITY           SKY/WX    TMP DP  RH WIND       PRES   REMARKS
PORTSMOUTH     MOCLDY    65  63  93 CALM      30.15R
ROCHESTER      CLOUDY    65  63  93 CALM      30.16R
NASHUA         CLEAR     65  65 100 CALM      30.16S
MANCHESTER     PTCLDY    65  63  93 CALM      30.15R
CONCORD        CLOUDY    64  63  96 NW3       30.16R
LACONIA          N/A     63  57  82 W5        30.15S
PLYMOUTH       FAIR      55  55  97 CALM      30.15S FOG
BERLIN         FOG       55  55 100 CALM      30.16R VSB 1/4
WHITEFIELD     PTCLDY    53  51  93 CALM      30.16R FOG
JAFFREY        PTCLDY    61  59  93 CALM      30.18S
LEBANON        CLOUDY    62  58  86 S3        30.14S
MT WASHINGTON  FOG       45  45 100 W31         N/A  VSB 0
$$

VTZ005-007-008-010500-
VERMONT

CITY           SKY/WX    TMP DP  RH WIND       PRES   REMARKS
ST JOHNSBURY     N/A     57  56  96 MISG      30.13R
MONTPELIER     MOCLDY    57  55  93 CALM      30.18R
BURLINGTON     MOCLDY    62  59  90 CALM      30.10S
$$

MAZ007-012-024-CTZ003-RIZ002-NYZ038-NYZ072-010500-
SOUTHERN NEW ENGLAND AND NY

CITY           SKY/WX    TMP DP  RH WIND       PRES   REMARKS
BOSTON         PTCLDY    69  60  73 SW7       30.17R
WORCESTER      CLEAR     64  61  90 SW10      30.19S
NANTUCKET      MOCLDY    65  63  93 SW5       30.20R
PROVIDENCE     PTCLDY    66  62  87 S3        30.19S
HARTFORD       PTCLDY    69  60  73 S8        30.15R
ALBANY         CLEAR     64  62  93 CALM      30.14R
NEW YORK CITY  MOCLDY    76  64  66 SW7       30.13S
$$

ANZ081-ANZ082-ANZ150-NHZ014-MEZ023>029-010500-
COASTAL MARINE OBSERVATIONS

STATION/POSITION TIME  TEMP    WIND        PRES    WAVE
                       AIR SEA DIR/SP/G            HT/PER
                 (UTC) (F)     (DEG/KT/KT) (MB)    (FT/S)
MOUNT DESERT ROC 0400   60                 1021.5R
MATINICUS ROCK   0300          170/ 16/ 16 1020.5F
PORTLAND WX BUOY 0400   65 63  240/  8/ 10 1020.8R   3/ 8
WELLS            0300   65 62  310/  2/  4 1020.1S
ISLE OF SHOALS   0300   67     190/ 10/ 10 1020.7R
JEFFREYS LEDGE   0300      64                N/A     4/ 4
CASHES LEDGE BUO 0400   69 67  200/ 12/ 16 1020.8S   4/ 7
$$

.............KEY..............
   WCI - WIND CHILL
   TC  - TEMPERATURE IN CELSIUS
   VSB - VISIBILITY IN MILES
   HX  - HEAT INDEX
   FAIR- INDICATES FEW OR NO CLOUDS BELOW 12,000 FT, WITH NO
         SIGNIFICANT WEATHER AND/OR OBSTRUCTIONS TO VISIBILITY.






U.S. Dept. of Commerce
NOAA National Weather Service
1325 East West Highway
Silver Spring, MD 20910
E-mail: w-nws.webmaster@noaa.gov
Page last modified: May 16, 2007
NATIONAL WEATHER SERVICE: for Safety, for Work, for Fun - FOR LIFE